Weather History for KLIT - July, 2013

Change the Weather History Date:

Thursday, July 4, 2013

  Actual Average Record
Temperature  
Mean Temperature 75 °F 82 °F  
Max Temperature 89 °F 92 °F 104 °F (1963)
Min Temperature 61 °F 73 °F 56 °F (1968)
Degree Days  
Heating Degree Days 0 0  
Month to date heating degree days 0 0  
Since 1 June heating degree days 0 0  
Since 1 July heating degree days 0 0  
Cooling Degree Days 10 17  
Month to date cooling degree days 43 68  
Year to date cooling degree days 747 774  
Since 1 June cooling degree days 486 493  
Growing Degree Days 26 (Base 50)    
Moisture  
Dew Point 59 °F    
Average Humidity 62    
Maximum Humidity 90    
Minimum Humidity 34    
Precipitation  
Precipitation 0.00 in 0.11 in 2.77 in (1973)
Month to date precipitation 0.00 0.44  
Year to date precipitation 28.85 25.99  
Snow  
Snow 0.00 in 0.00 in - ()
Month to date snowfall 0.0 0.0  
Since 1 June snowfall 0.0 0.0  
Since 1 July snowfall 0.0 0.0  
Snow Depth 0.00 in    
Sea Level Pressure  
Sea Level Pressure 30.02 in    
Wind  
Wind Speed 4 mph (NE)    
Max Wind Speed 14 mph    
Max Gust Speed 18 mph    
Visibility 10 miles    
Events      
T = Trace of Precipitation, MM = Missing Value Source: NWS Daily Summary

Daily Weather History Graph

Daily Weather History Graph

Search for Another Location

Airport or City:

Trip Planner

Search our weather history database for the weather conditions in past years. The results will help you decide how hot, cold, wet, or windy it might be!

Date:

Astronomy

Jul. 04, 2013 Rise Set
Actual Time 6:00 AM CDT 8:25 PM CDT
Civil Twilight 5:31 AM CDT 8:55 PM CDT
Nautical Twilight 4:55 AM CDT 9:31 PM CDT
Astronomical Twilight 4:15 AM CDT 10:10 PM CDT
Moon 3:14 AM CDT (7/4) 5:33 PM CDT (7/4)
Length of Visible Light 15h 23m
Length of Day
14h 24m
Waning Crescent, 11% of the Moon is Illuminated
Jul 4
Waning Crescent
Jul 8
New
Jul 15
First Quarter
Jul 22
Full
Jul 29
Last Quarter

Hourly Weather History & Observations

Time (CDT) Temp. Heat Index Dew Point Humidity Pressure Visibility Wind Dir Wind Speed Gust Speed Precip Events Conditions
12:53 AM 68.0 °F - 60.1 °F 76% 30.05 in 10.0 mi Calm Calm - N/A   Partly Cloudy
1:53 AM 64.9 °F - 60.1 °F 84% 30.04 in 10.0 mi Calm Calm - N/A   Partly Cloudy
2:53 AM 64.9 °F - 61.0 °F 87% 30.04 in 10.0 mi Calm Calm - N/A   Clear
3:53 AM 64.0 °F - 61.0 °F 90% 30.04 in 10.0 mi Calm Calm - N/A   Clear
4:53 AM 64.0 °F - 60.1 °F 87% 30.04 in 10.0 mi Calm Calm - N/A   Partly Cloudy
5:53 AM 62.1 °F - 59.0 °F 90% 30.05 in 10.0 mi Calm Calm - N/A   Partly Cloudy
6:53 AM 63.0 °F - 59.0 °F 87% 30.05 in 10.0 mi Calm Calm - N/A   Partly Cloudy
7:53 AM 71.1 °F - 61.0 °F 70% 30.06 in 10.0 mi North 3.5 mph - N/A   Partly Cloudy
8:53 AM 75.9 °F - 60.1 °F 58% 30.06 in 10.0 mi North 4.6 mph - N/A   Clear
9:53 AM 80.1 °F 81.1 °F 61.0 °F 52% 30.06 in 10.0 mi Variable 5.8 mph - N/A   Clear
10:53 AM 84.0 °F 83.8 °F 59.0 °F 43% 30.06 in 10.0 mi Calm Calm - N/A   Partly Cloudy
11:53 AM 84.9 °F 84.2 °F 57.9 °F 40% 30.06 in 10.0 mi North 4.6 mph - N/A   Partly Cloudy
12:53 PM 87.1 °F 86.1 °F 57.9 °F 37% 30.04 in 10.0 mi ENE 8.1 mph - N/A   Scattered Clouds
1:53 PM 89.1 °F 88.0 °F 57.9 °F 35% 30.03 in 10.0 mi NE 11.5 mph 16.1 mph N/A   Scattered Clouds
2:53 PM 87.1 °F 86.1 °F 57.9 °F 37% 30.00 in 10.0 mi Variable 4.6 mph - N/A   Scattered Clouds
3:53 PM 86.0 °F 84.9 °F 57.0 °F 37% 29.99 in 10.0 mi ESE 9.2 mph - N/A   Scattered Clouds
4:53 PM 88.0 °F 86.5 °F 55.9 °F 34% 29.98 in 10.0 mi East 10.4 mph 18.4 mph N/A   Partly Cloudy
5:53 PM 87.1 °F 85.3 °F 55.0 °F 33% 29.97 in 10.0 mi ENE 10.4 mph - N/A   Scattered Clouds
6:53 PM 84.9 °F 83.2 °F 53.1 °F 33% 29.97 in 10.0 mi East 10.4 mph - N/A   Partly Cloudy
7:53 PM 81.0 °F 80.8 °F 55.9 °F 42% 29.96 in 10.0 mi ENE 8.1 mph - N/A   Scattered Clouds
8:53 PM 77.0 °F - 57.0 °F 50% 29.97 in 10.0 mi Calm Calm - N/A   Partly Cloudy
9:53 PM 75.9 °F - 59.0 °F 56% 30.00 in 10.0 mi Calm Calm - N/A   Partly Cloudy
10:53 PM 73.0 °F - 60.1 °F 64% 30.00 in 10.0 mi Calm Calm - N/A   Partly Cloudy
11:53 PM 71.1 °F - 61.0 °F 70% 30.01 in 10.0 mi Calm Calm - N/A   Partly Cloudy